| 
				
				
				
					
						
					 | 
				
				
				
					
					
					Asteroid 2012 FX35
					
					
					
					
						
					
					
						
							(Preview)
						
						
						
						
							
						
							
								Orbital elements:
2012 FX35                                                Earth MOID = 0.0081 AU
Epoch 2012 Mar. 14.0 TT = JDT 2456000.5                 MPC
M   8.94997              (2000.0)            P               Q
n   0.89136169     Peri.  339.64097     -0.95603618     -0.29303818
a   1.0693012      Node   183.37847     +0.28832515     -0.93239562
e   0.0635246      Incl.   10.86764     +0.05351111     -0.21158219
P   1.11           H   25.9           G...                         
							 
							
						 
						
					
				 | 
				
					
						Blobrana
					 | 
				
				
					
						0
					 | 
				
				
				
					
						
					 | 
				
				
					
						
					 | 
				
			
		
			
			
				
				
					
						 
					 | 
				
				
				
					
						
					 | 
				
				
				
					
					
					Asteroid 2012 FR35
					
					
					
					
						
					
					
						
							(Preview)
						
						
						
						
							
						
							
								Orbital elements:
2012 FR35                                                Earth MOID = 0.1609 AU
Epoch 2012 Mar. 14.0 TT = JDT 2456000.5                 MPC
M 354.26664              (2000.0)            P               Q
n   0.25812106     Peri.  179.84805     -0.98333820     +0.17695454
a   2.4429829      Node    10.62175     -0.16702234     -0.78906772
e   0.5250887      Incl.   13.05304     -0.07176020     -0.58826799
P   3.82           H   21.7...                                    
							 
							
						 
						
					
				 | 
				
					
						Blobrana
					 | 
				
				
					
						0
					 | 
				
				
				
					
						
					 | 
				
				
					
						
					 | 
				
			
		
			
			
				
				
					
						 
					 | 
				
				
				
					
						
					 | 
				
				
				
					
					
					Asteroid 2012 FW35
					
					
					
					
						
					
					
						
							(Preview)
						
						
						
						
							
						
							
								Orbital elements:
2012 FW35                                                Earth MOID = 0.0117 AU
Epoch 2012 Mar. 14.0 TT = JDT 2456000.5                 MPC
M 340.99865              (2000.0)            P               Q
n   0.35888113     Peri.   49.46976     -0.52825175     +0.84892668
a   1.9611116      Node   188.68940     -0.80837310     -0.50878594
e   0.5376157      Incl.    6.28548     -0.25977494     -0.14303972
P   2.75           H   26.4           G...                         
							 
							
						 
						
					
				 | 
				
					
						Blobrana
					 | 
				
				
					
						0
					 | 
				
				
				
					
						
					 | 
				
				
					
						
					 | 
				
			
		
			
			
				
				
					
						 
					 | 
				
				
				
					
						
					 | 
				
				
				
					
					
					Asteroid 2012 FT35
					
					
					
					
						
					
					
						
							(Preview)
						
						
						
						
							
						
							
								Orbital elements:
2012 FT35                                                Earth MOID = 0.0022 AU
Epoch 2012 Mar. 14.0 TT = JDT 2456000.5                 MPC
M 177.27375              (2000.0)            P               Q
n   1.30849039     Peri.  171.16188     +0.99821777     +0.05910063
a   0.8278577      Node   185.47031     -0.05867107     +0.94659527
e   0.2121136      Incl.    4.97711     -0.01090841     +0.31696136
P   0.75           H   29.2...                                    
							 
							
						 
						
					
				 | 
				
					
						Blobrana
					 | 
				
				
					
						0
					 | 
				
				
				
					
						
					 | 
				
				
					
						
					 | 
				
			
		
			
			
				
				
					
						 
					 | 
				
				
				
					
						
					 | 
				
				
				
					
					
					Asteroid 2012 FQ35
					
					
					
					
						
					
					
						
							(Preview)
						
						
						
						
							
						
							
								Orbital elements:
2012 FQ35                                                Earth MOID = 0.0227 AU
Epoch 2012 Mar. 14.0 TT = JDT 2456000.5                 MPC
M   5.86434              (2000.0)            P               Q
n   0.67306242     Peri.  340.20369     -0.95422727     -0.29876806
a   1.2895331      Node   182.53568     +0.29870060     -0.94969128
e   0.2176342      Incl.   18.05285     +0.01510889     -0.09393678
P   1.46           H   23.7           G...                         
							 
							
						 
						
					
				 | 
				
					
						Blobrana
					 | 
				
				
					
						0
					 | 
				
				
				
					
						
					 | 
				
				
					
						
					 | 
				
			
		
			
			
				
				
					
						 
					 | 
				
				
				
					
						
					 | 
				
				
				
					
					
					Asteroid 2012 FO35
					
					
					
					
						
					
					
						
							(Preview)
						
						
						
						
							
						
							
								Orbital elements:
2012 FO35                                                Earth MOID = 0.0337 AU
Epoch 2012 Mar. 14.0 TT = JDT 2456000.5                 MPC
M 324.04885              (2000.0)            P               Q
n   0.45938840     Peri.   93.22055     +0.04447752     +0.99900941
a   1.6634741      Node   179.32392     -0.95714427     +0.04301398
e   0.5320959      Incl.    6.79723     -0.28617580     +0.01140164
P   2.15           H   23.7           G...                         
							 
							
						 
						
					
				 | 
				
					
						Blobrana
					 | 
				
				
					
						0
					 | 
				
				
				
					
						
					 | 
				
				
					
						
					 | 
				
			
		
			
			
				
				
					
						 
					 | 
				
				
				
					
						
					 | 
				
				
				
					
					
					Asteroid 2012 FP35
					
					
					
					
						
					
					
						
							(Preview)
						
						
						
						
							
						
							
								Orbital elements:
2012 FP35                                                Earth MOID = 0.0010 AU
Epoch 2012 Mar. 14.0 TT = JDT 2456000.5                 MPC
M 318.83184              (2000.0)            P               Q
n   0.62834258     Peri.   79.34671     -0.09169112     +0.99566164
a   1.3500144      Node   185.46727     -0.96620484     -0.09280232
e   0.4450357      Incl.    9.56470     -0.24091688     -0.00675454
P   1.57           H   27.9           G...                         
							 
							
						 
						
					
				 | 
				
					
						Blobrana
					 | 
				
				
					
						0
					 | 
				
				
				
					
						
					 | 
				
				
					
						
					 | 
				
			
		
			
			
				
				
					
						 
					 | 
				
				
				
					
						
					 | 
				
				
				
					
					
					Asteroid 2012 FY23
					
					
					
					
						
					
					
						
							(Preview)
						
						
						
						
							
						
							
								Orbital elements:
2012 FY23                                                Earth MOID = 0.0832 AU
Epoch 2012 Mar. 14.0 TT = JDT 2456000.5                 MPC
M 342.70755              (2000.0)            P               Q
n   0.25783701     Peri.   41.95924     -0.40992937     +0.90355612
a   2.4447768      Node   204.63919     -0.89603134     -0.42447799
e   0.5871127      Incl.   17.40082     -0.17054548     +0.05835039
P   3.82           H   19.9...                                   
							 
							
						 
						
					
				 | 
				
					
						Blobrana
					 | 
				
				
					
						0
					 | 
				
				
				
					
						
					 | 
				
				
					
						
					 | 
				
			
		
			
			
				
				
					
						 
					 | 
				
				
				
					
						 
					 | 
				
				
				
					
					
					Asteroid 2012 FZ23
					
					
					
					
						
					
					
						
							(Preview)
						
						
						
						
							
						
							
								Orbital elements:
2012 FZ23                                           PHA, Earth MOID = 0.0199 AU
Epoch 2012 Mar. 14.0 TT = JDT 2456000.5                 MPC
M 356.69982              (2000.0)            P               Q
n   0.25562116     Peri.  357.81616     -0.99911524     -0.04078775
a   2.4588848      Node   179.39277     +0.03323929     -0.61648310
e   0.6031989      Incl.   75.31896     -0.02576615     +0.78631097
P   3.86...                                                   
							 
							
						 
						
					
				 | 
				
					
						Blobrana
					 | 
				
				
					
						0
					 | 
				
				
				
					
						
					 | 
				
				
					
						
					 | 
				
			
		
			
			
				
				
					
						 
					 | 
				
				
				
					
						
					 | 
				
				
				
					
					
					Asteroid 2012 FD1
					
					
					
					
						
					
					
						
							(Preview)
						
						
						
						
							
						
							
								Orbital elements:
2012 FD1                                                 Earth MOID = 0.0847 AU
Epoch 2012 Mar. 14.0 TT = JDT 2456000.5                 MPC
M 337.14245              (2000.0)            P               Q
n   0.35034835     Peri.   64.04974     -0.51139765     +0.85929831
a   1.9928258      Node   175.16516     -0.82131123     -0.48569784
e   0.4853560      Incl.    6.04789     -0.25282467     -0.16032474
P   2.81           H   23.2           G   0... 
							 
							
						 
						
					
				 | 
				
					
						Blobrana
					 | 
				
				
					
						1
					 | 
				
				
				
					
						
					 | 
				
				
					
						
					 | 
				
			
		
			
			
				
				
					
						 
					 | 
				
				
				
					
						
					 | 
				
				
				
					
					
					Asteroid 2012 FV23
					
					
					
					
						
					
					
						
							(Preview)
						
						
						
						
							
						
							
